Regional Weather Roundup
Issued by NWS Northern Indiana

Home | Current Version | Previous Version | Graphics & Text | Print | Product List | Glossary On
Versions: 1 2 3 4 5 6 7 8 9 10 11 12 13 14 15 16 17 18 19 20 21 22 23 24 25 26 27 28 29 30 31 32 33 34 35 36 37 38 39 40 41 42 43 44 45 46 47 48 49 50
580
ASUS43 KIWX 270000
RWRIWX

KIWX WEATHER ROUNDUP
NATIONAL WEATHER SERVICE NORTHERN INDIANA
800 PM EDT FRI MAY 26 2017

NOTE: "FAIR" INDICATES FEW OR NO CLOUDS BELOW 12,000 FEET WITH NO
SIGNIFICANT WEATHER AND/OR OBSTRUCTIONS TO VISIBILITY.

* THESE STATIONS ARE NOT UNDER NWS QUALITY CONTROL. THEY ALSO MAY NOT
  REPORT WEATHER SUCH AS PRECIPITATION OR FOG.

INZ001>027-270100-
NORTHERN INDIANA

CITY           SKY/WX    TMP DP  RH WIND       PRES   REMARKS
GARY*          LGT RAIN  59  55  88 N7        29.83R
MICHIGAN CITY* LGT RAIN  61  61 100 CALM      29.80F
SOUTH BEND     LGT RAIN  61  58  90 E10       29.80F
6HR MIN TEMP:  61; 6HR MAX TEMP:  71; 6HR PCP:  0.17;

ELKHART*       TSTM      63  59  88 E8        29.84R
GOSHEN         RAIN      65  59  81 NE8       29.85R
6HR MIN TEMP:  65; 6HR MAX TEMP:  73; 6HR PCP:  0.11;

MONTICELLO*    RAIN      66  62  88 SE5G16    29.77F
6HR MIN TEMP:  65; 6HR MAX TEMP:  76; 6HR PCP:  0.16;

ANGOLA*        CLEAR     68  61  77 SW5       29.85R
FORT WAYNE     CLOUDY    69  58  67 E7        29.84S
6HR MIN TEMP:  69; 6HR MAX TEMP:  72;


$$
INZ028>050-270100-
CENTRAL INDIANA

CITY           SKY/WX    TMP DP  RH WIND       PRES   REMARKS
LAFAYETTE      TSTM      69  63  81 SE3       29.76R
6HR MIN TEMP:  69; 6HR MAX TEMP:  76; 6HR PCP:  0.09;

KOKOMO*        LGT RAIN  70  63  78 SE8       29.81S
6HR MIN TEMP:  70; 6HR MAX TEMP:  75; 6HR PCP:  0.04;

MUNCIE*        CLOUDY    75  58  55 S6        29.82S
6HR MIN TEMP:  72; 6HR MAX TEMP:  78;

INDIANAPOLIS   CLOUDY    75  63  66 SE12      29.78F
6HR MIN TEMP:  74; 6HR MAX TEMP:  78;


$$
MIZ043>046-050>051-056>058-064>065-071>073-077>080-270100-
SOUTHWEST LOWER MICHIGAN

CITY           SKY/WX    TMP DP  RH WIND       PRES   REMARKS
BATTLE CREEK   CLOUDY    67  57  70 SE3       29.86S
6HR MIN TEMP:  67; 6HR MAX TEMP:  71; 6HR PCP:  0.01;

BENTON HARBOR  LGT RAIN  60  55  83 NE7       29.82F
6HR MIN TEMP:  60; 6HR MAX TEMP:  70; 6HR PCP:  0.04;

COLDWATER*     CLOUDY    66  58  74 E3        29.84F
6HR MIN TEMP:  65; 6HR MAX TEMP:  70;

HILLSDALE*     PTCLDY    64  54  68 CALM      29.86F
HOLLAND        CLOUDY    60  51  72 NW3       29.87S
6HR MIN TEMP:  60; 6HR MAX TEMP:  71; 6HR PCP: TRACE;

GRAND RAPIDS   CLOUDY    67  54  63 S5        29.86R
6HR MIN TEMP:  67; 6HR MAX TEMP:  71;

KALAMAZOO      CLOUDY    68  55  63 CALM      29.86R
6HR MIN TEMP:  68; 6HR MAX TEMP:  71; 6HR PCP: TRACE;

STURGIS*       CLOUDY    66  57  74 CALM      29.86R
6HR MIN TEMP:  66; 6HR MAX TEMP:  70;

THREE RIVERS*  CLOUDY    67  56  67 CALM      29.87R
6HR MIN TEMP:  67; 6HR MAX TEMP:  72;


$$
OHZ001>008-015>018-024>025-270100-
NORTHWEST OHIO

CITY           SKY/WX    TMP DP  RH WIND       PRES   REMARKS
DEFIANCE       CLOUDY    69  54  58 CALM      29.85F
6HR MIN TEMP:  67; 6HR MAX TEMP:  70;

FINDLAY        PTCLDY    70  54  56 SW6       29.87S
6HR MIN TEMP:  68; 6HR MAX TEMP:  73; 6HR PCP: TRACE;

TOLEDO EXPRESS PTCLDY    69  58  67 S3        29.86S
6HR MIN TEMP:  66; 6HR MAX TEMP:  72; 6HR PCP: TRACE;

TOLEDO METCALF CLOUDY    70  56  61 W5        29.87S
6HR MIN TEMP:  68; 6HR MAX TEMP:  72; 6HR PCP: TRACE;

LIMA           CLEAR     68  57  68 E5        29.86F
6HR MIN TEMP:  67; 6HR MAX TEMP:  71; 6HR PCP: TRACE;


$$
AND FOR LAKE MICHIGAN COASTAL AND OPEN LAKE BUOY OBSERVATIONS

STATION/POSITION TEMP    WIND        PRES    VSBY  WAVE
                 AIR SEA DIR/SP/G                  HT/PER
                 (F)     (DEG/KT/KT) (MB)    (MI)  (FT/S)
CALUMET HARBOR    54     360/  8/ 16 1009.3R
MICHIGAN CITY     57      50/ 13/ 14   N/A
BURNS HARBOR      57      80/ 12/ 14 1008.8F
SOUTH LAKE BUOY   49 48   20/  4/  6 1011.4          1
4 MI NW BRIDGMAN  58 56   60/ 10/ 14 1010.0F         1/ 3
MICHIGAN CITY     55 53   50/ 14/ 17   N/A           2/ 2

$$
&&




USA.gov is the U.S. government's official web portal to all federal, state and local government web resources and services.